Temp
-16 -15 -15 -14 -12 -13 -13 -13 -12 -12 -12 -12 -12 -12 -12 -12 -11 -11 -10 -10 -10 -10 -10 -9 -9 -9 -9 -10 -9 -10 -9 -9 -10 -10 -10 -10 -11 -11 -11 -11 -11 -11 -11 -11
-17 -15 -15 -14 -14 -14 -14 -13 -12 -13 -12 -12 -13 -12 -13 -12 -12 -11 -10 -10 -10 -10 -10 -10 -10 -10 -10 -10 -10 -10 -10 -10 -10 -10 -10 -11 -11 -11 -11 -11 -11 -10 -11 -11
-17 -14 -15 -15 -14 -14 -14 -12 -12 -12 -12 -12 -13 -12 -13 -12 -12 -11 -11 -11 -11 -11 -10 -10 -10 -10 -10 -10 -10 -10 -10 -10 -10 -11 -11 -11 -11 -11 -11 -11 -11 -11 -11 -11
-16 -15 -15 -15 -15 -15 -14 -13 -13 -12 -12 -12 -12 -11 -12 -11 -12 -11 -11 -10 -10 -10 -10 -10 -10 -10 -10 -11 -11 -11 -11 -11 -11 -11 -11 -11 -11 -11 -11 -11 -11 -11 -11 -11
-16 -15 -15 -15 -15 -14 -14 -13 -13 -13 -12 -12 -12 -12 -11 -12 -11 -11 -11 -11 -11 -11 -11 -11 -11 -11 -11 -11 -11 -11 -11 -11 -11 -11 -12 -11 -11 -11 -11 -12 -12 -11 -11 -11
-16 -15 -15 -14 -14 -14 -14 -14 -13 -13 -12 -12 -11 -11 -11 -10 -10 -11 -11 -11 -12 -11 -11 -11 -11 -11 -11 -11 -11 -11 -11 -11 -11 -12 -12 -12 -12 -12 -12 -12 -12 -12 -12 -12
-17 -16 -15 -15 -15 -15 -14 -14 -13 -13 -12 -12 -12 -12 -9 -11 -10 -11 -11 -11 -12 -12 -11 -11 -11 -11 -11 -11 -11 -12 -12 -11 -12 -12 -12 -12 -12 -12 -12 -12 -12 -12 -12 -12
-16 -15 -15 -14 -14 -14 -13 -14 -14 -13 -13 -11 -11 -10 -8 -10 -11 -11 -11 -12 -12 -11 -12 -11 -11 -12 -12 -11 -11 -12 -12 -12 -12 -12 -12 -12 -12 -12 -12 -12 -12 -12 -12 -12
-16 -15 -15 -14 -14 -14 -13 -14 -14 -14 -13 -12 -11 -9 -9 -10 -10 -11 -11 -11 -11 -11 -11 -11 -12 -11 -11 -11 -12 -12 -12 -12 -12 -12 -12 -12 -13 -12 -12 -12 -12 -13 -13 -13
-16 -15 -15 -15 -14 -14 -14 -14 -13 -14 -13 -12 -11 -11 -11 -11 -12 -11 -11 -11 -12 -12 -12 -12 -12 -11 -12 -11 -12 -12 -12 -12 -12 -12 -12 -12 -12 -12 -12 -12 -13 -13 -13 -13
-17 -17 -16 -15 -15 -15 -14 -14 -14 -14 -14 -13 -11 -11 -10 -11 -11 -12 -11 -12 -12 -12 -12 -12 -12 -12 -12 -12 -12 -12 -12 -12 -12 -12 -12 -13 -12 -12 -13 -13 -13 -13 -13 -13
-17 -16 -17 -16 -15 -16 -14 -14 -15 -14 -14 -14 -13 -12 -12 -12 -11 -11 -11 -12 -12 -11 -11 -12 -12 -12 -12 -12 -12 -12 -12 -13 -12 -12 -12 -13 -13 -13 -13 -13 -13 -13 -14 -14
-17 -17 -17 -16 -16 -15 -15 -15 -15 -14 -14 -14 -14 -13 -13 -13 -12 -12 -12 -12 -11 -11 -12 -12 -13 -12 -12 -12 -12 -12 -12 -13 -13 -13 -13 -13 -13 -13 -14 -13 -13 -14 -14 -14
-18 -17 -17 -17 -16 -16 -16 -15 -15 -15 -14 -14 -13 -14 -13 -13 -13 -13 -12 -12 -11 -11 -11 -12 -12 -12 -12 -12 -12 -13 -13 -13 -13 -13 -13 -13 -14 -14 -14 -14 -14 -14 -15 -15
-18 -17 -17 -17 -16 -16 -16 -15 -15 -15 -15 -15 -14 -14 -13 -13 -14 -13 -13 -13 -13 -13 -12 -12 -12 -12 -12 -12 -12 -12 -13 -14 -13 -13 -14 -14 -14 -14 -14 -14 -14 -15 -15 -15
-17 -17 -17 -17 -17 -17 -16 -16 -16 -15 -15 -14 -14 -14 -14 -14 -14 -14 -14 -13 -13 -13 -13 -13 -12 -12 -12 -12 -12 -12 -13 -13 -14 -14 -14 -15 -15 -15 -14 -14 -15 -15 -15 -15
-18 -18 -17 -17 -17 -17 -17 -16 -16 -16 -15 -15 -14 -15 -15 -14 -14 -14 -14 -14 -13 -13 -13 -13 -13 -13 -13 -13 -13 -13 -13 -14 -15 -15 -15 -15 -15 -14 -14 -15 -15 -15 -15 -16
-19 -19 -18 -18 -17 -17 -17 -17 -17 -16 -16 -16 -15 -15 -15 -15 -14 -14 -15 -14 -14 -13 -13 -13 -14 -14 -14 -14 -14 -14 -14 -14 -14 -15 -15 -14 -14 -15 -15 -15 -15 -15 -16 -16
-19 -19 -19 -18 -18 -18 -17 -18 -17 -17 -17 -16 -16 -16 -15 -15 -15 -15 -15 -15 -14 -14 -14 -14 -14 -14 -14 -14 -14 -14 -14 -14 -14 -14 -14 -15 -15 -15 -15 -15 -15 -16 -16 -16
-20 -20 -20 -19 -19 -18 -18 -18 -18 -18 -17 -17 -16 -16 -16 -15 -15 -15 -15 -15 -15 -15 -15 -15 -15 -14 -15 -15 -15 -15 -15 -15 -15 -15 -15 -15 -15 -16 -16 -15 -16 -16 -16 -17
-20 -20 -20 -20 -20 -20 -19 -19 -19 -18 -18 -17 -17 -17 -16 -16 -16 -16 -15 -15 -15 -15 -15 -15 -15 -15 -15 -15 -15 -15 -15 -15 -15 -15 -15 -15 -16 -16 -16 -16 -16 -17 -17 -18
-21 -20 -20 -20 -20 -20 -20 -20 -19 -19 -19 -19 -18 -18 -17 -17 -16 -16 -16 -16 -16 -15 -15 -15 -15 -15 -15 -15 -15 -15 -15 -15 -16 -16 -16 -16 -16 -16 -17 -17 -17 -18 -18 -19
-22 -21 -21 -21 -20 -20 -20 -20 -20 -20 -20 -20 -19 -19 -19 -18 -17 -17 -16 -16 -16 -16 -16 -16 -16 -16 -16 -16 -16 -16 -16 -16 -16 -16 -16 -17 -17 -17 -18 -18 -18 -18 -19 -19
-22 -22 -21 -21 -21 -21 -20 -20 -20 -20 -20 -20 -19 -20 -19 -19 -19 -18 -18 -18 -17 -17 -16 -16 -16 -16 -16 -16 -16 -16 -16 -16 -17 -17 -18 -18 -18 -18 -18 -18 -18 -19 -19 -20
-23 -22 -22 -21 -21 -21 -21 -21 -21 -20 -20 -20 -20 -20 -20 -19 -19 -19 -19 -19 -18 -18 -17 -17 -17 -17 -17 -17 -17 -17 -17 -17 -17 -17 -18 -18 -18 -18 -18 -19 -19 -19 -20 -21
-23 -23 -22 -22 -22 -22 -22 -22 -21 -21 -21 -20 -20 -20 -20 -20 -20 -19 -19 -19 -19 -19 -19 -19 -18 -18 -18 -18 -17 -17 -18 -18 -18 -18 -18 -19 -19 -19 -19 -19 -19 -19 -19 -20
Height
5627 5639 5642 5662 5677 5694 5701 5708 5718 5733 5740 5745 5752 5761 5771 5772 5780 5785 5789 5795 5801 5807 5809 5812 5816 5820 5823 5826 5828 5831 5832 5834 5836 5838 5839 5839 5839 5839 5838 5838 5837 5836 5833 5832
5620 5628 5647 5661 5669 5680 5690 5702 5713 5725 5730 5737 5743 5752 5760 5764 5775 5781 5786 5790 5795 5799 5803 5808 5812 5816 5819 5821 5824 5826 5828 5829 5832 5833 5834 5835 5835 5835 5833 5832 5832 5831 5829 5827
5619 5637 5642 5650 5662 5674 5683 5694 5706 5716 5725 5730 5738 5743 5748 5757 5767 5772 5777 5782 5787 5791 5797 5803 5808 5812 5814 5818 5819 5821 5823 5825 5827 5828 5829 5829 5830 5830 5827 5827 5826 5825 5824 5823
5614 5624 5634 5646 5658 5670 5680 5690 5701 5708 5716 5722 5730 5733 5741 5747 5759 5764 5771 5776 5782 5785 5792 5797 5801 5806 5811 5812 5814 5816 5818 5821 5821 5823 5823 5823 5824 5824 5822 5821 5820 5820 5819 5818
5608 5618 5628 5642 5656 5666 5678 5687 5696 5703 5710 5715 5721 5727 5737 5745 5751 5756 5764 5770 5775 5781 5787 5793 5798 5802 5803 5805 5808 5810 5813 5816 5816 5816 5818 5818 5818 5818 5816 5815 5813 5813 5813 5810
5610 5619 5628 5640 5650 5660 5672 5679 5688 5695 5701 5703 5712 5722 5730 5735 5743 5753 5759 5764 5770 5775 5781 5787 5791 5793 5796 5799 5802 5805 5807 5808 5810 5809 5812 5812 5812 5812 5811 5810 5807 5806 5804 5803
5611 5618 5628 5637 5645 5653 5664 5673 5678 5684 5688 5696 5707 5714 5725 5733 5738 5748 5753 5757 5765 5768 5773 5778 5783 5786 5790 5793 5796 5799 5800 5801 5802 5803 5805 5805 5806 5804 5804 5804 5801 5800 5798 5796
5611 5618 5626 5632 5640 5650 5660 5666 5671 5674 5682 5693 5698 5705 5713 5725 5731 5736 5742 5749 5758 5762 5765 5770 5775 5779 5781 5784 5789 5791 5792 5794 5795 5797 5797 5798 5800 5796 5797 5797 5795 5794 5792 5789
5611 5617 5623 5630 5638 5646 5653 5659 5666 5672 5678 5685 5694 5702 5707 5720 5724 5730 5740 5746 5751 5755 5760 5763 5767 5770 5775 5777 5781 5783 5785 5785 5787 5789 5789 5791 5791 5789 5790 5789 5788 5786 5784 5781
5610 5616 5620 5627 5636 5641 5650 5657 5661 5665 5671 5679 5687 5693 5699 5712 5719 5725 5733 5740 5743 5746 5750 5754 5759 5763 5767 5771 5774 5774 5776 5777 5779 5780 5781 5782 5780 5781 5781 5780 5778 5777 5774 5771
5607 5610 5617 5624 5630 5635 5643 5649 5655 5660 5665 5671 5679 5687 5692 5701 5709 5714 5723 5729 5731 5737 5742 5747 5750 5753 5758 5761 5763 5765 5766 5768 5770 5771 5772 5771 5772 5772 5772 5771 5771 5768 5765 5762
5604 5609 5614 5621 5627 5631 5638 5644 5649 5653 5660 5665 5671 5679 5683 5689 5697 5704 5712 5717 5724 5729 5732 5737 5741 5744 5747 5751 5753 5755 5756 5758 5759 5761 5762 5762 5763 5763 5763 5762 5761 5758 5756 5753
5602 5607 5612 5617 5623 5628 5633 5639 5644 5648 5653 5659 5665 5672 5674 5681 5688 5695 5701 5707 5714 5719 5723 5726 5731 5734 5736 5739 5742 5743 5744 5747 5749 5751 5752 5753 5753 5753 5753 5752 5750 5748 5745 5744
5598 5603 5609 5615 5618 5623 5627 5632 5638 5642 5647 5652 5658 5663 5669 5673 5678 5685 5691 5696 5702 5707 5712 5717 5720 5723 5726 5727 5729 5730 5733 5736 5738 5740 5742 5742 5743 5743 5744 5742 5738 5736 5735 5734
5595 5600 5605 5609 5612 5618 5621 5625 5630 5636 5641 5644 5651 5655 5657 5665 5669 5674 5680 5686 5690 5695 5701 5704 5706 5709 5713 5716 5718 5720 5722 5724 5727 5729 5731 5732 5732 5733 5732 5730 5727 5726 5726 5723
5594 5597 5600 5604 5608 5611 5614 5618 5624 5629 5634 5638 5643 5648 5651 5655 5658 5665 5670 5675 5681 5684 5688 5691 5693 5696 5699 5702 5707 5709 5712 5714 5715 5718 5720 5721 5721 5720 5719 5717 5715 5716 5714 5712
5588 5591 5595 5600 5603 5607 5612 5614 5618 5623 5628 5631 5636 5640 5642 5644 5649 5653 5659 5664 5667 5671 5675 5680 5684 5688 5691 5694 5696 5698 5700 5701 5704 5705 5707 5706 5707 5706 5706 5705 5705 5705 5703 5700
5584 5586 5590 5594 5599 5603 5606 5609 5613 5618 5621 5624 5628 5631 5634 5636 5641 5645 5649 5651 5655 5660 5664 5668 5673 5678 5682 5684 5685 5686 5688 5689 5690 5692 5693 5692 5694 5694 5694 5695 5694 5693 5691 5689
5582 5583 5586 5590 5593 5596 5600 5602 5607 5611 5615 5618 5621 5622 5625 5629 5634 5637 5637 5641 5645 5649 5654 5658 5662 5666 5669 5671 5673 5676 5678 5678 5680 5680 5681 5682 5683 5684 5684 5684 5682 5681 5680 5678
5579 5581 5584 5585 5588 5591 5595 5597 5601 5604 5609 5611 5613 5615 5619 5622 5626 5628 5630 5633 5636 5639 5642 5647 5651 5654 5658 5660 5662 5664 5666 5666 5668 5668 5670 5672 5673 5673 5673 5672 5671 5670 5668 5666
5574 5576 5579 5581 5584 5587 5590 5593 5595 5599 5604 5603 5606 5608 5611 5613 5617 5618 5622 5625 5628 5629 5632 5636 5640 5643 5646 5649 5652 5654 5655 5656 5655 5657 5659 5661 5662 5661 5661 5660 5660 5658 5657 5656
5570 5573 5575 5577 5580 5584 5585 5587 5591 5592 5593 5595 5597 5599 5601 5603 5605 5608 5612 5615 5618 5620 5622 5626 5628 5631 5634 5636 5639 5642 5644 5643 5645 5647 5648 5648 5649 5648 5649 5649 5647 5647 5645 5644
5567 5569 5571 5574 5576 5578 5580 5582 5583 5584 5586 5587 5588 5589 5591 5593 5595 5598 5601 5603 5606 5608 5611 5614 5618 5621 5623 5626 5629 5631 5631 5631 5633 5634 5635 5636 5636 5636 5636 5636 5635 5635 5634 5633
5558 5561 5566 5568 5571 5572 5574 5575 5575 5578 5579 5579 5580 5582 5583 5585 5586 5588 5590 5593 5595 5596 5599 5602 5605 5609 5612 5613 5615 5617 5619 5620 5620 5622 5623 5624 5624 5625 5624 5624 5624 5624 5624 5625
5550 5552 5557 5562 5563 5564 5564 5564 5565 5566 5568 5569 5570 5571 5573 5574 5577 5579 5579 5581 5582 5584 5585 5588 5591 5594 5597 5599 5601 5603 5605 5607 5608 5610 5611 5612 5612 5613 5613 5613 5614 5615 5615 5615
5543 5548 5551 5553 5553 5554 5555 5554 5555 5555 5555 5556 5558 5558 5560 5562 5563 5565 5568 5569 5570 5573 5574 5576 5578 5580 5583 5585 5588 5590 5592 5593 5595 5597 5598 5600 5601 5602 5603 5604 5604 5605 5604 5605
Wind_Speed
69 49 64 63 67 64 62 66 63 61 51 52 57 55 45 49 44 42 39 36 35 31 31 29 26 24 21 19 19 19 18 19 18 18 19 21 21 23 27 26 26 27 29 30
66 68 59 59 53 57 58 64 61 63 51 53 52 58 55 60 48 43 40 37 36 37 36 32 29 26 23 23 23 22 21 21 21 22 22 23 23 26 28 28 28 30 27 29
60 65 62 68 67 48 56 66 59 59 48 58 56 57 59 51 50 48 45 43 41 40 37 35 32 28 27 25 26 24 25 24 25 24 24 25 26 27 28 29 31 28 28 32
47 52 61 62 68 65 60 65 63 64 54 48 60 58 53 54 51 50 47 46 44 44 42 38 34 30 29 29 29 29 27 26 27 26 27 28 27 27 29 31 31 31 31 33
40 32 53 55 53 56 43 50 57 60 50 50 56 56 49 48 52 52 49 46 44 43 40 37 33 31 32 33 32 31 28 28 29 30 28 29 29 29 31 32 34 34 34 34
35 43 41 44 46 51 47 40 46 61 52 53 55 55 49 51 52 52 50 48 44 41 38 35 32 35 36 35 35 32 31 31 32 34 29 32 31 31 32 34 36 36 38 37
34 34 44 52 51 48 51 41 45 50 58 56 59 57 51 49 51 49 52 51 48 46 44 38 36 39 40 37 36 33 34 35 36 36 33 33 32 35 36 35 37 38 40 39
34 31 47 51 49 47 57 42 43 55 58 52 51 57 54 51 48 52 47 47 47 45 48 39 39 39 42 40 36 36 37 38 39 39 36 37 33 38 40 40 40 40 40 41
26 30 36 42 41 50 52 48 44 45 52 62 53 50 56 54 53 48 46 41 44 49 44 40 39 38 41 40 38 40 41 41 41 40 41 39 38 39 40 43 43 42 41 42
24 29 34 30 42 45 39 34 36 40 49 61 66 54 48 40 48 48 41 42 39 42 45 45 40 40 42 43 43 44 43 43 43 43 40 39 40 42 41 43 44 42 43 45
29 26 23 25 31 31 41 32 29 35 37 49 65 66 64 58 54 54 49 48 44 45 45 47 41 40 46 47 46 46 45 45 44 44 43 44 41 42 44 45 43 45 46 48
17 30 28 29 21 31 36 31 27 32 33 39 47 58 57 52 49 54 53 52 49 46 47 45 46 48 45 51 50 49 47 48 48 49 48 45 44 44 45 45 45 47 50 48
40 26 23 18 33 36 30 34 28 31 30 35 42 46 48 51 47 46 43 44 47 49 43 50 41 47 48 52 50 47 48 47 48 49 48 45 46 46 46 45 47 50 50 48
44 41 27 27 30 39 35 36 29 26 26 32 40 43 45 49 46 46 48 42 42 44 52 57 54 50 52 53 55 53 51 50 49 49 49 47 46 46 46 47 51 50 49 50
37 41 33 26 18 32 31 38 43 36 32 30 36 40 45 47 47 48 42 37 37 36 40 47 52 51 51 54 54 50 52 51 49 50 50 49 48 47 48 52 53 47 49 49
30 33 29 28 30 22 24 34 36 35 33 33 34 39 43 42 45 44 43 42 38 39 40 40 46 54 58 55 52 44 46 53 54 53 51 49 52 54 56 55 46 46 47 45
26 28 30 35 28 29 27 24 25 32 36 36 34 31 38 42 42 41 43 43 44 44 43 40 37 40 43 45 43 42 43 50 54 55 54 53 56 57 54 45 42 45 46 49
17 21 30 29 30 30 28 29 26 25 26 31 34 33 36 35 39 44 46 45 44 45 46 44 44 42 42 43 44 44 44 49 53 56 59 61 58 47 41 41 44 46 49 47
18 16 19 23 30 31 30 30 29 30 30 28 29 32 35 36 37 36 41 46 46 44 42 40 40 41 40 41 42 44 46 50 51 54 51 44 41 40 42 43 48 50 46 43
19 15 13 16 21 24 28 30 32 32 33 33 34 34 33 34 34 37 38 40 42 42 42 41 41 40 40 41 41 42 41 41 40 40 40 41 42 43 45 51 49 45 44 42
18 15 15 14 12 14 21 23 25 29 34 36 38 38 38 38 37 36 36 37 37 41 44 43 43 42 41 43 42 42 42 43 44 43 42 43 44 47 49 47 44 45 41 38
22 21 20 19 22 23 18 21 21 20 23 28 33 38 39 40 43 43 41 40 39 39 37 37 35 35 36 39 41 43 44 46 45 44 44 44 44 45 44 45 44 41 38 34
23 24 23 22 21 22 24 25 24 23 24 22 23 27 29 34 39 42 44 45 46 45 44 42 41 41 41 40 40 39 40 44 46 46 44 42 43 43 43 43 40 37 35 31
27 27 26 25 25 27 27 29 30 30 30 29 29 29 29 31 33 34 35 37 40 43 43 43 44 44 44 43 43 44 45 46 44 42 40 40 41 41 38 34 34 32 31 30
24 26 27 27 27 28 31 33 35 37 38 38 37 37 36 36 37 37 37 36 36 37 37 37 39 41 42 41 41 41 41 42 42 41 38 37 35 34 32 29 30 31 30 29
19 18 20 18 18 22 25 27 31 36 41 46 48 49 48 45 43 41 40 38 36 36 36 36 37 37 37 38 38 39 41 38 38 37 34 32 31 29 31 32 32 33 36 39
Wind_Direction
195 209 206 212 218 221 220 215 216 219 218 221 217 214 211 219 218 216 216 213 218 220 224 219 219 221 224 227 233 237 240 246 249 256 265 273 280 291 296 297 299 304 309 307
192 202 206 209 214 221 221 216 215 216 226 220 217 216 216 222 221 223 219 217 218 221 224 226 224 223 226 229 234 239 245 248 253 261 269 274 285 292 291 294 299 301 303 303
198 204 208 207 211 210 223 212 212 215 216 222 218 217 218 216 217 222 220 219 219 224 225 227 228 228 229 234 239 241 246 252 258 263 270 275 284 288 289 296 299 300 302 303
200 203 204 208 212 219 223 220 215 218 228 228 220 226 223 217 212 219 224 224 224 227 227 227 228 230 237 238 241 244 248 253 260 265 269 276 284 285 289 297 298 302 305 303
197 184 202 204 212 218 215 215 215 219 226 228 214 224 222 222 216 222 225 227 227 230 233 234 235 236 236 240 245 247 250 256 263 266 270 278 284 285 288 295 298 304 307 309
187 185 197 201 204 212 209 213 216 217 217 225 223 220 220 221 218 220 224 227 232 229 231 230 234 237 241 245 249 250 255 257 262 268 271 279 283 282 288 294 299 305 309 310
209 215 215 208 211 220 215 217 213 217 217 221 222 224 221 223 228 226 228 233 232 232 231 237 240 251 244 246 250 252 255 260 263 269 273 276 283 282 284 291 297 302 305 308
201 196 199 217 218 220 226 218 222 216 215 216 218 219 220 223 229 220 223 227 226 232 234 237 247 252 241 244 249 253 256 262 265 268 271 275 280 279 282 288 296 298 300 304
198 196 206 203 198 206 215 219 212 218 223 222 222 223 227 226 223 234 228 226 233 239 236 247 254 250 242 249 252 256 258 262 265 268 272 276 277 277 282 286 292 295 299 302
196 204 205 213 219 210 212 213 217 218 225 226 223 229 226 221 233 226 229 230 230 234 243 238 248 251 251 254 258 255 259 263 266 268 272 272 273 279 280 284 288 293 298 300
238 228 199 208 208 207 213 210 219 220 219 223 226 231 233 238 237 234 236 233 242 244 248 242 240 252 253 252 255 254 254 261 266 263 267 270 273 277 280 283 289 293 295 299
207 230 235 242 235 241 221 222 233 229 224 221 218 228 232 237 238 236 235 241 242 244 245 228 243 255 257 247 252 255 255 258 262 262 265 267 272 275 278 283 288 291 295 295
226 235 227 223 232 226 228 224 238 231 234 228 225 227 234 240 241 236 236 239 239 241 241 242 248 253 254 251 247 249 252 257 259 260 261 264 270 273 277 281 286 289 292 294
224 232 250 254 243 230 242 240 229 231 234 232 228 230 237 239 242 243 244 249 247 249 247 250 254 257 252 252 242 245 251 255 256 258 262 265 268 271 275 281 284 288 289 290
221 227 237 239 240 237 239 236 237 249 255 243 229 230 233 234 240 243 243 244 243 243 243 241 242 243 249 255 246 248 249 251 255 257 259 263 265 269 275 278 282 284 287 288
221 231 230 238 238 233 235 242 248 249 247 244 237 233 233 236 240 241 242 242 239 236 237 242 246 247 247 246 247 251 256 256 254 256 259 262 265 269 273 277 278 283 284 286
231 227 234 232 236 237 238 224 227 231 233 238 240 238 239 237 236 241 241 238 239 238 239 243 245 249 246 243 246 248 251 253 254 258 259 261 264 267 270 272 276 278 283 288
252 238 231 238 242 246 246 250 245 240 235 236 237 237 239 239 239 239 239 240 241 242 241 240 244 248 249 251 253 254 256 256 256 254 257 261 265 265 267 271 274 280 285 289
264 250 248 245 242 248 251 253 252 255 254 245 242 240 239 238 238 239 240 241 241 240 243 244 245 248 251 253 258 262 260 256 258 261 264 264 265 265 270 273 278 283 286 289
259 257 254 248 250 251 248 251 252 250 248 249 247 245 245 242 243 238 238 239 243 245 245 245 247 249 250 256 258 261 261 260 261 264 266 267 267 268 271 276 280 283 287 287
236 251 257 259 259 267 261 261 259 253 252 250 248 248 248 250 249 248 244 243 243 243 245 246 250 252 250 251 253 256 256 257 257 260 262 263 265 269 273 277 281 283 284 282
241 246 248 263 282 283 279 280 274 268 259 253 250 251 252 251 250 252 254 252 249 247 245 245 248 250 251 252 253 256 257 258 260 260 260 262 266 269 272 276 278 280 279 271
250 253 257 261 266 273 276 276 275 277 277 275 269 260 257 256 254 254 254 253 253 251 250 250 252 253 253 252 252 254 255 257 259 260 263 265 265 268 271 272 277 277 273 266
260 258 259 260 264 268 268 267 268 270 269 269 272 272 271 267 260 253 253 254 255 252 250 250 251 253 256 256 257 256 256 255 256 259 260 262 263 267 272 271 275 274 266 265
261 260 263 269 269 272 274 273 272 271 270 269 267 267 264 265 267 267 260 256 256 257 257 256 258 258 258 256 257 258 257 256 256 256 254 259 262 262 263 267 270 265 262 258
249 256 267 265 266 271 274 271 271 271 271 270 267 266 265 264 262 261 261 263 259 258 255 254 255 254 255 254 253 252 252 250 249 251 251 252 253 257 261 263 262 269 269 267